Weather History for Blytheville Muni Airport, AR

Change the Weather History Date:

Monday, October 10, 2011

  Actual Average Record
Temperature  
Mean Temperature 66 °F -  
Max Temperature 77 °F 75 °F 94 °F (1938)
Min Temperature 55 °F 51 °F 33 °F (2000)
Cooling Degree Days 1    
Growing Degree Days 16 (Base 50)    
Moisture  
Dew Point 56 °F    
Average Humidity 73    
Maximum Humidity 90    
Minimum Humidity 54    
Precipitation  
Precipitation 0.00 in - - ()
Sea Level Pressure  
Sea Level Pressure 30.08 in    
Wind  
Wind Speed 5 mph (ESE)    
Max Wind Speed 9 mph    
Max Gust Speed -    
Visibility 10 miles    
Events      
Averages and records for this station are not official NWS values.
T = Trace of Precipitation, MM = Missing Value Source: NWS Daily Summary

Daily Weather History Graph

Daily Weather History Graph

Search for Another Location

Airport:

Trip Planner

Search our weather history database for the weather conditions in past years. The results will help you decide how hot, cold, wet, or windy it might be!

Date:

Astronomy

Oct. 10, 2011 Rise Set
Actual Time 7:01 AM CDT 6:30 PM CDT
Civil Twilight 6:35 AM CDT 6:56 PM CDT
Nautical Twilight 6:06 AM CDT 7:25 PM CDT
Astronomical Twilight 5:36 AM CDT 7:55 PM CDT
Moon 5:34 PM CDT (10/10) 5:43 AM CDT (10/10)
Length of Visible Light 12h 20m
Length of Day
11h 29m
Waxing Gibbous, 98% of the Moon is Illuminated
Oct 10
Waxing Gibbous
Oct 11
Full
Oct 19
Last Quarter
Oct 26
New
Nov 2
First Quarter

Hourly Weather History & Observations

Time (CDT) Temp. Dew Point Humidity Pressure Visibility Wind Dir Wind Speed Gust Speed Precip Events Conditions
12:53 AM 61.0 °F 54.0 °F 78% 30.13 in 10.0 mi ESE 5.8 mph - N/A   Clear
1:53 AM 59.0 °F 53.1 °F 81% 30.13 in 10.0 mi East 6.9 mph - N/A   Clear
2:53 AM 57.9 °F 53.1 °F 84% 30.12 in 10.0 mi East 8.1 mph - N/A   Clear
3:53 AM 57.0 °F 53.1 °F 87% 30.11 in 10.0 mi Calm Calm - N/A   Clear
4:53 AM 57.9 °F 54.0 °F 87% 30.12 in 10.0 mi ESE 4.6 mph - N/A   Clear
5:53 AM 55.9 °F 53.1 °F 90% 30.12 in 10.0 mi East 4.6 mph - N/A   Clear
6:53 AM 55.0 °F 52.0 °F 89% 30.13 in 10.0 mi Calm Calm - N/A   Clear
8:53 AM 64.0 °F 55.9 °F 75% 30.15 in - North - - N/A   Unknown
9:53 AM 71.1 °F 55.9 °F 59% 30.15 in 10.0 mi SE 8.1 mph - N/A   Clear
10:53 AM 73.9 °F 57.9 °F 57% 30.14 in 10.0 mi Variable 5.8 mph - N/A   Clear
11:53 AM 75.0 °F 57.9 °F 55% 30.12 in 10.0 mi SSE 9.2 mph - N/A   Partly Cloudy
12:53 PM - - N/A% 30.10 in - North - - N/A   Unknown
1:53 PM 77.0 °F 60.1 °F 56% 30.06 in 10.0 mi East 9.2 mph - N/A   Mostly Cloudy
2:53 PM 77.0 °F 60.1 °F 56% 30.04 in 10.0 mi Variable 4.6 mph - N/A   Scattered Clouds
3:53 PM 77.0 °F 59.0 °F 54% 30.03 in 10.0 mi ESE 8.1 mph - N/A   Overcast
4:53 PM - - N/A% 30.02 in - North - - N/A   Unknown
5:53 PM 75.9 °F - N/A% 30.01 in - Calm Calm - N/A   Unknown
6:53 PM 72.0 °F 60.1 °F 66% 30.01 in 10.0 mi ENE 3.5 mph - N/A   Mostly Cloudy
7:53 PM - - N/A% 30.02 in - North - - N/A   Unknown
8:53 PM - - N/A% 30.02 in - North - - N/A   Unknown
9:53 PM - - N/A% 30.01 in - North - - N/A   Unknown
10:53 PM 64.0 °F 60.1 °F 87% 30.00 in 10.0 mi East 4.6 mph - N/A   Unknown